ELECTRON KICK STAGE R/B, 100684

Orbit data source: Space-Track

ELECTRON KICK STAGE R/B, 100684 is space debris in LEO originally from an American launch on Fri, 11 Sep 2026 UTC launched from the Rocket Lab Launch Complex (RLLC). Debris objects in space refer to the collection of defunct objects orbiting the Earth. Examples of debris include non-operational satellites, rocket bodies, and fragments generated from explosions, collisions, or faulty payload assembly.

Loading next visibility...
Identifier
100684, 2026-207C
Orbit
LEO
Country
Flag of USUS
Related business
None
Manufacturer
Unknown
Mission
Spacecraft
Bus & Motor
Unknown
Mass
Unknown
Launch date (UTC)
2026-09-11 (2 days ago)
Launch vehicle
Unknown
Launch site
Rocket Lab Launch Complex (RLLC)
Object type
Payload
Rocket body
Debris
Shape & HBR
Unknown
Radar Cross Section
RCS unknown

Expand to show TLE details & history
Last TLE update: 9 hours ago

TLE from 9 hours ago
0 ELECTRON KICK STAGE R/B
1 A0684U 26207C   26255.82461560  .00362714  38303-4  13950-2 0  9991
2 A0684  36.0103 300.4844 0191338 299.6992  58.4831 15.63518256   266
Epoch: 2026-09-12T19:47Z
TLE epoch observation values (Epoch: 2026-09-12T19:47:26.787Z)
Latitude
-0.00006°
Longitude
11.79464°
Altitude
310.768 km
Speed
7.761 km/s
True Right ascension
20h 01m 56s
True Declination
0° 00' 00"
Sunlit
Object was in full shadow at epoch
Visualization orbit readout
Latitude
Unknown
Longitude
Unknown
Altitude
Unknown
Speed
Unknown
Apparent Right ascension
Unknown
Apparent Declination
Unknown
Sunlit
N/A
Visualization observer readout
Local Sidereal Time
20:48:30
Azimuth
Unknown
Elevation
Unknown
Doppler factor
Unknown
Orbital elements
Apogee altitude
509.971 km
Perigee altitude
251.328 km
Semi-major axis
6,758.787 km
Eccentricity
0.01913
Inclination
36.0103°
RAAN
300.4844°
Arg. of periapsis
299.6992°
True anomaly
60.37555°
Mean anomaly
58.4831°
Eccentric anomaly
59.42698°
Mean motion
3.90607 °/min
Orbital period
92.16 mins
BSTAR
0.001395
Loading maneuver chart data...
Computing Atmospheric mass density...
Loading historical data...
Loading historical data...
Loading historical data...
Loading historical data...
Loading historical data...
Loading historical data...
Loading historical data...
Other satellites on launch #207 in the year 2026 (2026-09-11 UTC)

Documentation

Showing up to 5 results
|